SL-14 DEB, 45291

Orbit data source: Space-Track

SL-14 DEB, 45291 is space debris in LEO originally from a launch on Thu, 15 Aug 1991 UTC launched from the Plesetsk Missile And Space Complex (PKMTR). Debris objects in space refer to the collection of defunct objects orbiting the Earth. Examples of debris include non-operational satellites, rocket bodies, and fragments generated from explosions, collisions, or faulty payload assembly.

Loading next visibility...
Identifier
45291, 1991-056AD
Orbit
LEO
Country
Flag of CISCIS
Related business
Manufacturer
Unknown
Mission
Spacecraft
Bus & Motor
Unknown
Mass
Unknown
Launch date (UTC)
1991-08-15 (34 years ago)
Launch vehicle
Unknown
Launch site
Plesetsk Missile And Space Complex (PKMTR)
Object type
Payload
Rocket body
Debris
Shape & HBR
Unknown shape, 0.1 m
Radar Cross Section
Small (<0.1 m²)

Expand to show TLE details & history
Last TLE update: 9 hours ago

TLE from 9 hours ago
0 SL-14 DEB
1 45291U 91056AD  25303.30531300 -.00000418  00000-0 -12195-2 0  9995
2 45291  82.5463 318.1354 0038866 161.0231 199.2346 13.10798661272457
Epoch: 2025-10-30T07:19Z
TLE epoch observation values (Epoch: 2025-10-30T07:19:39.043Z)
Latitude
-0.00006°
Longitude
169.35671°
Altitude
1,250.77 km
Speed
7.216 km/s
True Right ascension
21h 12m 32s
True Declination
0° 00' 00"
Sunlit
Object was in daylight at epoch
Visualization orbit readout
Latitude
Unknown
Longitude
Unknown
Altitude
Unknown
Speed
Unknown
Apparent Right ascension
Unknown
Apparent Declination
Unknown
Sunlit
N/A
Visualization observer readout
Local Sidereal Time
12:06:23
Azimuth
Unknown
Elevation
Unknown
Doppler factor
Unknown
Orbital elements
Apogee altitude
1,246.845 km
Perigee altitude
1,187.804 km
Semi-major axis
7,595.462 km
Eccentricity
0.00389
Inclination
82.5463°
RAAN
318.1354°
Arg. of periapsis
161.0231°
True anomaly
199.08855°
Mean anomaly
199.2346°
Eccentric anomaly
199.16151°
Mean motion
3.27878 °/min
Orbital period
109.8 mins
BSTAR
-0.0012195
Loading maneuver chart data...
Computing Atmospheric mass density...
Loading historical data...
Loading historical data...
Loading historical data...
Loading historical data...
Loading historical data...
Loading historical data...
Loading historical data...

Documentation

Showing up to 5 results
|